Portada
METAR-TAF:

METAR-TAF

Aeroports :

Nashua, Nova Hampshire, Estats Units d'Amèrica

latitud: 42-47N, longitud: 071-31W, altitud: 61 m

Observació

L'informe es va fer fa 46 minuts, a les 00:56 UTC
Vent 7 kt del Oest amb ràfegues de 15 kt
Temperatura -4°C
Humitat 30%
Pressió 1015 hPa
Visibilitat: 16.1 km
Cel clar

METAR: KASH 030056Z 27007G15KT 10SM CLR M04/M19 A2996 RMK AO2 SLP155 T10441189

Hora: 20:42 (01:42 UTC)


TAF: manca

Observacions i pronòstics meteorològics de més de 4000 aeroports (METAR i TAF).

Les estacions disponibles són els punts grocs i vermells al mapa.

Posi el ratolí al punt desitjat per veure el nom de l'estació.

Feu clic per veure les observacions i els pronòstics meteorològics.

Per canviar el mapa: feu clic els botons verds amb una creu de color negre per apropar; al botó verd amb un guió per allunyar la imatge; o en les fletxes verdes per a mapes adjacents.


METAR-TAF: